Weather History for KGBG - October, 2013

Change the Weather History Date:

Sunday, October 27, 2013

  Actual Average Record
Temperature  
Mean Temperature 39 °F -  
Max Temperature 56 °F 59 °F 77 °F (1950)
Min Temperature 23 °F 40 °F 23 °F (2013)
Degree Days  
Heating Degree Days 26    
Moisture  
Dew Point 30 °F    
Average Humidity 72    
Maximum Humidity 100    
Minimum Humidity 38    
Precipitation  
Precipitation 0.00 in - - ()
Sea Level Pressure  
Sea Level Pressure 30.04 in    
Wind  
Wind Speed 3 mph (SSW)    
Max Wind Speed 15 mph    
Max Gust Speed 18 mph    
Visibility 10 miles    
Events      
Averages and records for this station are not official NWS values.
T = Trace of Precipitation, MM = Missing Value Source: NWS Daily Summary

Daily Weather History Graph

Daily Weather History Graph

Search for Another Location

Airport or City:

Trip Planner

Search our weather history database for the weather conditions in past years. The results will help you decide how hot, cold, wet, or windy it might be!

Date:

Astronomy

Oct. 27, 2013 Rise Set
Actual Time 7:26 AM CDT 6:03 PM CDT
Civil Twilight 6:58 AM CDT 6:31 PM CDT
Nautical Twilight 6:26 AM CDT 7:04 PM CDT
Astronomical Twilight 5:54 AM CDT 7:35 PM CDT
Moon 12:21 AM CDT (10/27) 2:15 PM CDT (10/27)
Length of Visible Light 11h 33m
Length of Day
10h 36m
Last Quarter, 43% of the Moon is Illuminated
Oct 27
Last Quarter
Nov 3
New
Nov 9
First Quarter
Nov 17
Full
Nov 25
Last Quarter

Hourly Weather History & Observations

Time (CDT) Temp. Windchill Dew Point Humidity Pressure Visibility Wind Dir Wind Speed Gust Speed Precip Events Conditions
12:15 AM 30.2 °F - 28.6 °F 94% 30.11 in 10.0 mi Calm Calm - N/A   Clear
12:35 AM 29.3 °F - 27.7 °F 94% 30.11 in 10.0 mi Calm Calm - N/A   Clear
12:55 AM 28.9 °F - 28.0 °F 96% 30.10 in 10.0 mi Calm Calm - N/A   Clear
1:15 AM 27.5 °F - 27.0 °F 98% 30.10 in 10.0 mi Calm Calm - N/A   Clear
1:35 AM 27.9 °F - 27.3 °F 98% 30.10 in 10.0 mi Calm Calm - N/A   Clear
1:55 AM 29.1 °F - 28.6 °F 98% 30.09 in 10.0 mi Calm Calm - N/A   Clear
2:15 AM 27.7 °F - 27.3 °F 99% 30.09 in 10.0 mi Calm Calm - N/A   Clear
2:35 AM 27.3 °F - 25.9 °F 94% 30.08 in 10.0 mi Calm Calm - N/A   Clear
2:55 AM 27.7 °F - 25.7 °F 92% 30.07 in 10.0 mi Calm Calm - N/A   Clear
3:15 AM 25.3 °F - 25.3 °F 100% 30.07 in 10.0 mi Calm Calm - N/A   Clear
3:35 AM 24.4 °F - 24.3 °F 99% 30.07 in 10.0 mi Calm Calm - N/A   Clear
3:55 AM 26.2 °F - 26.2 °F 100% 30.06 in 10.0 mi Calm Calm - N/A   Clear
4:15 AM 26.8 °F - 26.6 °F 99% 30.07 in 10.0 mi Calm Calm - N/A   Clear
4:35 AM 25.3 °F - 25.2 °F 99% 30.07 in 10.0 mi Calm Calm - N/A   Clear
4:55 AM 24.4 °F - 24.4 °F 100% 30.08 in 10.0 mi Calm Calm - N/A   Clear
5:15 AM 26.6 °F - 26.6 °F 100% 30.08 in 10.0 mi Calm Calm - N/A   Clear
5:35 AM 25.5 °F - 24.6 °F 96% 30.08 in 10.0 mi Calm Calm - N/A   Clear
5:55 AM 25.0 °F - 25.0 °F 100% 30.08 in 10.0 mi Calm Calm - N/A   Clear
6:15 AM 23.7 °F - 23.7 °F 100% 30.08 in 10.0 mi Calm Calm - N/A   Clear
6:35 AM 24.1 °F - 24.1 °F 100% 30.07 in 10.0 mi Calm Calm - N/A   Clear
6:55 AM 23.7 °F - 23.5 °F 99% 30.08 in 10.0 mi Calm Calm - N/A   Clear
7:15 AM 24.1 °F - 24.1 °F 100% 30.08 in 10.0 mi Calm Calm - N/A   Clear
7:35 AM 23.4 °F - 23.2 °F 99% 30.09 in 10.0 mi Calm Calm - N/A   Clear
7:55 AM 23.9 °F - 23.9 °F 100% 30.09 in 10.0 mi Calm Calm - N/A   Clear
8:15 AM 25.9 °F - 25.9 °F 100% 30.09 in 10.0 mi Calm Calm - N/A   Clear
8:35 AM 29.3 °F - 28.4 °F 96% 30.10 in 10.0 mi Calm Calm - N/A   Clear
8:55 AM 32.2 °F - 30.6 °F 94% 30.10 in 10.0 mi Calm Calm - N/A   Clear
9:15 AM 35.6 °F - 31.3 °F 84% 30.09 in 10.0 mi Calm Calm - N/A   Clear
9:35 AM 38.7 °F - 32.9 °F 80% 30.09 in 10.0 mi Calm Calm - N/A   Clear
9:55 AM 42.4 °F - 33.6 °F 71% 30.09 in 10.0 mi Calm Calm - N/A   Clear
10:15 AM 45.3 °F 42.3 °F 34.3 °F 65% 30.09 in 10.0 mi SSW 5.8 mph - N/A   Clear
10:35 AM 46.9 °F - 34.2 °F 61% 30.09 in 10.0 mi SSW 6.9 mph - N/A   Clear
10:55 AM 48.7 °F - 32.7 °F 54% 30.08 in 10.0 mi SW 8.1 mph - N/A   Clear
11:15 AM 49.5 °F - 31.8 °F 51% 30.08 in 10.0 mi SW 10.4 mph - N/A   Clear
11:35 AM 50.7 °F - 32.2 °F 49% 30.08 in 10.0 mi SSW 13.8 mph - N/A   Clear
11:55 AM 51.4 °F - 31.3 °F 46% 30.07 in 10.0 mi SW 12.7 mph 17.3 mph N/A   Clear
12:15 PM 52.2 °F - 32.0 °F 46% 30.06 in 10.0 mi SW 11.5 mph 16.1 mph N/A   Clear
12:35 PM 52.7 °F - 32.0 °F 45% 30.05 in 10.0 mi SW 10.4 mph 16.1 mph N/A   Clear
12:55 PM 53.4 °F - 32.0 °F 44% 30.04 in 10.0 mi SW 10.4 mph 16.1 mph N/A   Clear
1:15 PM 54.3 °F - 32.7 °F 44% 30.03 in 10.0 mi SSW 9.2 mph 17.3 mph N/A   Clear
1:35 PM 54.1 °F - 32.4 °F 44% 30.02 in 10.0 mi SSW 11.5 mph - N/A   Clear
1:55 PM 54.5 °F - 32.4 °F 43% 30.01 in 10.0 mi SW 10.4 mph 16.1 mph N/A   Clear
2:15 PM 54.9 °F - 32.4 °F 42% 30.00 in 10.0 mi SSW 13.8 mph 18.4 mph N/A   Clear
2:35 PM 54.7 °F - 32.0 °F 42% 29.99 in 10.0 mi SSW 12.7 mph - N/A   Clear
2:55 PM 54.9 °F - 32.0 °F 42% 29.99 in 10.0 mi SSW 12.7 mph 18.4 mph N/A   Clear
3:15 PM 55.4 °F - 32.0 °F 41% 29.98 in 10.0 mi South 15.0 mph - N/A   Clear
3:35 PM 55.8 °F - 32.0 °F 41% 29.98 in 10.0 mi SSW 9.2 mph 17.3 mph N/A   Clear
3:55 PM 55.9 °F - 32.2 °F 41% 29.99 in 10.0 mi SSW 12.7 mph - N/A   Clear
4:15 PM 55.8 °F - 32.0 °F 41% 29.98 in 10.0 mi SSW 12.7 mph - N/A   Clear
4:37 PM 55.4 °F - 32.0 °F 41% 29.98 in 10.0 mi SSW 9.2 mph - N/A   Clear
4:55 PM 55.4 °F - 30.2 °F 38% 29.97 in 10.0 mi SSW 11.5 mph - N/A   Clear
5:15 PM 53.6 °F - 30.2 °F 41% 29.97 in 10.0 mi SSW 10.4 mph - N/A   Clear
5:35 PM 51.6 °F - 32.0 °F 47% 29.97 in 10.0 mi SSW 8.1 mph - N/A   Clear
5:55 PM 49.8 °F - 31.3 °F 49% 29.97 in 10.0 mi South 6.9 mph - N/A   Clear
6:15 PM 48.9 °F - 31.1 °F 50% 29.97 in 10.0 mi South 4.6 mph - N/A   Clear
6:35 PM 48.0 °F - 30.9 °F 52% 29.97 in 10.0 mi South 6.9 mph - N/A   Clear
6:55 PM 47.3 °F - 30.9 °F 53% 29.97 in 10.0 mi South 5.8 mph - N/A   Clear
7:15 PM 45.3 °F 43.0 °F 30.7 °F 57% 29.98 in 10.0 mi South 4.6 mph - N/A   Clear
7:35 PM 42.3 °F 40.5 °F 31.1 °F 65% 29.98 in 10.0 mi South 3.5 mph - N/A   Clear
7:55 PM 42.1 °F 40.2 °F 30.9 °F 65% 29.99 in 10.0 mi South 3.5 mph - N/A   Clear
8:15 PM 42.1 °F 39.2 °F 31.1 °F 65% 29.99 in 10.0 mi SSE 4.6 mph - N/A   Clear
8:35 PM 41.9 °F 39.0 °F 31.1 °F 66% 30.00 in 10.0 mi South 4.6 mph - N/A   Clear
8:55 PM 40.6 °F - 31.3 °F 69% 30.00 in 10.0 mi Calm Calm - N/A   Clear
9:15 PM 40.1 °F 36.9 °F 31.5 °F 71% 30.00 in 10.0 mi South 4.6 mph - N/A   Clear
9:35 PM 40.8 °F 37.8 °F 31.3 °F 69% 30.00 in 10.0 mi South 4.6 mph - N/A   Clear
9:55 PM 41.4 °F 37.6 °F 31.6 °F 68% 30.01 in 10.0 mi South 5.8 mph - N/A   Clear
10:15 PM 41.2 °F 37.3 °F 31.6 °F 69% 30.01 in 10.0 mi South 5.8 mph - N/A   Clear
10:35 PM 41.4 °F 38.4 °F 31.6 °F 68% 30.02 in 10.0 mi SSW 4.6 mph - N/A   Clear
10:55 PM 40.1 °F - 31.1 °F 70% 30.04 in 10.0 mi Calm Calm - N/A   Clear
11:15 PM 33.1 °F - 28.8 °F 84% 30.05 in 10.0 mi Calm Calm - N/A   Clear
11:35 PM 34.7 °F - 30.2 °F 84% 30.05 in 10.0 mi Calm Calm - N/A   Clear
11:55 PM 33.8 °F - 30.7 °F 89% 30.04 in 10.0 mi Calm Calm - N/A   Clear